TimeEST,TemperatureF,Dew PointF,Humidity,Sea Level PressureIn,VisibilityMPH,Wind Direction,Wind SpeedMPH,Gust SpeedMPH,PrecipitationIn,Events,Conditions,WindDirDegrees,DateUTC
12:53 AM,26.1,19.0,75,29.80,8.0,West,5.8,-,N/A,,Overcast,260,2013-02-04 05:53:00
1:53 AM,28.0,19.9,72,29.80,8.0,WNW,13.8,23.0,N/A,,Overcast,290,2013-02-04 06:53:00
2:53 AM,27.0,17.1,66,29.81,10.0,WNW,16.1,24.2,0.00,,Overcast,290,2013-02-04 07:53:00
3:53 AM,26.1,12.9,58,29.83,10.0,WNW,16.1,24.2,N/A,,Clear,300,2013-02-04 08:53:00
5:53 AM,24.1,9.0,53,29.89,10.0,WNW,10.4,26.5,N/A,,Clear,300,2013-02-04 10:53:00
6:53 AM,23.0,8.1,53,29.91,10.0,NW,12.7,19.6,N/A,,Clear,310,2013-02-04 11:53:00
7:53 AM,24.1,7.0,48,29.94,10.0,WNW,10.4,26.5,N/A,,Clear,300,2013-02-04 12:53:00
8:53 AM,26.1,8.1,47,29.95,10.0,WNW,16.1,21.9,N/A,,Clear,290,2013-02-04 13:53:00
9:53 AM,27.0,7.0,43,29.96,10.0,NW,10.4,24.2,N/A,,Clear,310,2013-02-04 14:53:00
10:53 AM,28.0,7.0,41,29.95,10.0,WNW,13.8,21.9,N/A,,Clear,290,2013-02-04 15:53:00
11:53 AM,28.9,6.1,38,29.94,10.0,WNW,12.7,24.2,N/A,,Clear,290,2013-02-04 16:53:00
12:53 PM,28.9,6.1,38,29.92,10.0,WNW,13.8,26.5,N/A,,Partly Cloudy,300,2013-02-04 17:53:00
1:53 PM,30.0,8.1,40,29.91,10.0,WNW,15.0,24.2,N/A,,Partly Cloudy,290,2013-02-04 18:53:00
2:40 PM,30.2,6.8,37,29.91,10.0,West,16.1,31.1,N/A,,Partly Cloudy,280,2013-02-04 19:40:00
2:53 PM,30.0,6.1,36,29.91,10.0,WNW,16.1,23.0,N/A,,Clear,300,2013-02-04 19:53:00
3:53 PM,28.9,7.0,40,29.91,10.0,WNW,12.7,20.7,N/A,,Clear,300,2013-02-04 20:53:00
4:53 PM,28.9,7.0,40,29.93,10.0,West,13.8,20.7,N/A,,Clear,280,2013-02-04 21:53:00
5:53 PM,28.0,7.0,41,29.96,10.0,West,10.4,-,N/A,,Partly Cloudy,270,2013-02-04 22:53:00
6:53 PM,28.0,7.0,41,29.98,10.0,West,9.2,-,N/A,,Clear,270,2013-02-04 23:53:00
7:53 PM,27.0,9.0,47,29.98,10.0,WSW,5.8,-,N/A,,Clear,250,2013-02-05 00:53:00
8:53 PM,26.1,9.0,49,29.99,10.0,West,5.8,-,N/A,,Clear,260,2013-02-05 01:53:00
9:53 PM,27.0,10.0,49,29.98,10.0,Calm,Calm,-,N/A,,Mostly Cloudy,0,2013-02-05 02:53:00
10:53 PM,27.0,10.9,51,29.98,10.0,SW,4.6,-,N/A,,Overcast,230,2013-02-05 03:53:00
11:53 PM,27.0,17.1,66,29.99,6.0,WSW,10.4,-,0.00,Snow,Light Snow,250,2013-02-05 04:53:00